Weather History for Worland, WY

Change the Weather History Date:

Wednesday, October 31, 2012

  Actual Average Record
Temperature  
Mean Temperature 50 °F 39 °F  
Max Temperature 72 °F 54 °F 77 °F (1999)
Min Temperature 27 °F 25 °F -3 °F (1991)
Degree Days  
Heating Degree Days 15 26  
Month to date heating degree days 618 605  
Since 1 July heating degree days 706 862  
Cooling Degree Days 0 0  
Month to date cooling degree days 0 0  
Year to date cooling degree days 901 535  
Growing Degree Days 0 (Base 50)    
Moisture  
Dew Point 27 °F    
Average Humidity 51    
Maximum Humidity 85    
Minimum Humidity 17    
Precipitation  
Precipitation 0.00 in 0.01 in 0.30 in (1974)
Month to date precipitation 0.26 0.69  
Year to date precipitation 2.05 6.99  
Sea Level Pressure  
Sea Level Pressure 30.06 in    
Wind  
Wind Speed 3 mph (SSE)    
Max Wind Speed 12 mph    
Max Gust Speed -    
Visibility 10 miles    
Events      
T = Trace of Precipitation, MM = Missing Value Source: NWS Daily Summary

Daily Weather History Graph

Daily Weather History Graph

Search for Another Location

Airport:

Trip Planner

Search our weather history database for the weather conditions in past years. The results will help you decide how hot, cold, wet, or windy it might be!

Date:

Astronomy

Oct. 31, 2012 Rise Set
Actual Time 7:47 AM MDT 6:02 PM MDT
Civil Twilight 7:17 AM MDT 6:32 PM MDT
Nautical Twilight 6:43 AM MDT 7:06 PM MDT
Astronomical Twilight 6:09 AM MDT 7:40 PM MDT
Moon 7:11 PM MDT 9:35 AM MDT
Length of Visible Light 11h 14m
Length of Day
10h 14m
Full, 97% of the Moon is Illuminated
Oct 31
Full
Nov 6
Last Quarter
Nov 13
New
Nov 20
First Quarter
Nov 28
Full

Hourly Weather History & Observations

Time (MDT) Temp. Windchill Dew Point Humidity Pressure Visibility Wind Dir Wind Speed Gust Speed Precip Events Conditions
12:53 AM 37.0 °F - 26.1 °F 65% 30.09 in 10.0 mi Calm Calm - N/A   Clear
1:53 AM 35.1 °F - 26.1 °F 70% 30.07 in 10.0 mi Calm Calm - N/A   Clear
2:53 AM 37.9 °F 35.5 °F 27.0 °F 65% 30.06 in 10.0 mi SSW 3.5 mph - N/A   Clear
3:53 AM 35.1 °F - 26.1 °F 70% 30.06 in 10.0 mi Calm Calm - N/A   Clear
4:53 AM 30.9 °F - 25.0 °F 79% 30.08 in 10.0 mi Calm Calm - N/A   Clear
5:53 AM 30.9 °F - 25.0 °F 79% 30.11 in 10.0 mi Calm Calm - N/A   Clear
6:53 AM 28.9 °F 25.2 °F 24.1 °F 82% 30.13 in 10.0 mi WSW 3.5 mph - N/A   Clear
7:53 AM 30.0 °F 25.2 °F 25.0 °F 82% 30.14 in 10.0 mi SSW 4.6 mph - N/A   Clear
8:53 AM 36.0 °F - 28.9 °F 76% 30.14 in 10.0 mi Calm Calm - N/A   Clear
9:53 AM 37.9 °F - 28.9 °F 70% 30.16 in 10.0 mi Calm Calm - N/A   Clear
10:53 AM 48.9 °F - 30.9 °F 50% 30.13 in 10.0 mi Calm Calm - N/A   Clear
11:53 AM 55.9 °F - 32.0 °F 40% 30.11 in 10.0 mi Calm Calm - N/A   Clear
12:53 PM 63.0 °F - 30.9 °F 30% 30.06 in 10.0 mi Calm Calm - N/A   Clear
1:53 PM 66.9 °F - 30.9 °F 26% 30.02 in 10.0 mi North 3.5 mph - N/A   Clear
2:53 PM 70.0 °F - 27.0 °F 20% 29.99 in 10.0 mi Calm Calm - N/A   Clear
3:53 PM 71.1 °F - 25.0 °F 18% 29.98 in 10.0 mi Calm Calm - N/A   Clear
4:53 PM 66.0 °F - 27.0 °F 23% 30.00 in 10.0 mi ENE 3.5 mph - N/A   Clear
5:53 PM 60.1 °F - 26.1 °F 27% 30.02 in 10.0 mi East 6.9 mph - N/A   Clear
6:53 PM 57.0 °F - 25.0 °F 29% 30.04 in 10.0 mi SE 11.5 mph - N/A   Clear
7:53 PM 55.9 °F - 28.0 °F 34% 30.03 in 10.0 mi SSE 11.5 mph - N/A   Clear
8:53 PM 51.1 °F - 27.0 °F 39% 30.02 in 10.0 mi WNW 3.5 mph - N/A   Clear
10:53 PM 46.9 °F - 27.0 °F 46% 29.99 in 10.0 mi SSE 5.8 mph - N/A   Clear
11:53 PM 46.9 °F - 27.0 °F 46% 29.95 in 10.0 mi SE 6.9 mph - N/A   Clear